247P/LINEAR (2018)

Japanese version
Home page
Updated on April 4, 2021

---------------------------------------------------------------------

* Profile

* Pictures

* Orbital Elements

Epoch 2018 Nov. 18.0 TT = JDT 2458440.5                                         
T 2018 Dec. 2.10361 TT                                  Rudenko                 
q   1.4890618            (2000.0)            P               Q                  
n   0.12454432     Peri.   47.44841     -0.18180871     -0.96458499             
a   3.9711847      Node    54.01094     +0.81874621     -0.25612776             
e   0.6250334      Incl.   13.66160     +0.54461017     +0.06304267             
P   7.91                                                                        
From 1373 observations 2002 Nov. 5-2019 Apr. 8, mean residual 0".7.             

* Magnitudes Graph

        m1 = 14.0 + 5 log d + 22.0 log r(t - 30)

---------------------------------------------------------------------

The orbital elements are published on M.P.E.C. 2021-F20.
The magnitudes graphs are made with Comet for Windows.

---------------------------------------------------------------------

Copyright(C) Seiichi Yoshida (comet@aerith.net). All rights reserved.